Location: Apollinopolis Magna
(24.9792°N, 32.8772°E)
Time: 10:29:02
(UTC+00:00)

SME Rocket - Pass Details

Date: 02 March 2021
Orbit: 550 x 2652 km, 99.9° (Epoch: 15 April)

Event Time Altitude Azimuth Distance (km) Brightness Sun altitude
Rises 17:37:12 0° 10° (N) 4,304 7.3 -24.8°
Reaches altitude 10° 17:40:24 10° 8° (N) 3,022 6.5 -25.5°
Maximum altitude 17:46:46 64° 288° (WNW) 913 4.0 -26.9°
Drops below altitude 10° 17:51:08 10° 207° (SSW) 2,090 6.0 -27.9°
Sets 17:53:01 0° 203° (SSW) 2,883 6.7 -28.4°
